[[{"header":{"parameterUnit":"m.s-1","parameterCategory":1,"la1":30.2991,"la2":30.254,"lo1":-89.0895,"lo2":-89.0444,"dy":0.0017,"dx":0.0017,"nx":28,"ny":28,"refTime":"2025-08-04T03:00:00:Z","depth":0,"parameterNumber":2,"parameterNumberName":"U-component_of_WINDS"},"data":[0,0,0,0,0,0,0,0,0,0,0,0,0,0,0,0,0,0,0,0,0,0,0,0,0,0,0,0,0,0,0,0,0,0,0,0,0,0,0,0,0,0,0,0,0,0,0,0,0,0,0,0,0,0,0,0,0,0,-3.4429,-3.4428,0,-3.4378,-3.4378,-3.4377,-3.4288,-3.4287,-3.4285,-3.4283,-3.4233,-3.4233,-3.4233,0,0,0,0,0,0,0,0,0,0,0,0,0,-3.4449,-3.4449,-3.4429,-3.4428,-3.4428,-3.4378,-3.4378,-3.4377,-3.4289,-3.4287,-3.4285,-3.4283,-3.4233,-3.4233,-3.4233,0,0,0,0,0,0,0,0,0,0,0,0,0,-3.4424,-3.4449,-3.4429,-3.4378,-3.4372,-3.4379,-3.4378,-3.4377,-3.4289,-3.4287,-3.4284,-3.4282,-3.4233,-3.4233,-3.4233,-3.4286,0,0,-3.4234,-3.4234,0,0,0,0,0,0,0,0,-3.4425,-3.4423,-3.4386,-3.4381,-3.4375,-3.4337,-3.4366,-3.4346,-3.429,-3.4321,-3.4283,-3.428,-3.427,-3.4267,-3.4263,-3.4284,-3.4281,-3.4234,-3.4235,-3.4235,-3.4235,0,0,0,0,0,0,0,-3.4427,-3.4425,-3.4409,-3.4385,-3.4379,-3.4357,-3.4351,-3.4362,-3.431,-3.4318,-3.4311,-3.4306,-3.4266,-3.4263,-3.4261,-3.4281,-3.4234,-3.4235,-3.4235,-3.4235,-3.4339,-3.4341,0,0,0,0,0,0,-3.4436,-3.4427,-3.4411,-3.4407,-3.4395,-3.4359,-3.4352,-3.4352,-3.431,-3.4301,-3.4309,-3.4303,-3.4263,-3.4261,-3.4259,-3.4315,-3.4235,-3.4235,-3.4235,-3.4336,-3.4339,-3.4342,0,0,0,0,0,0,-3.4437,-3.4436,-3.4413,-3.4415,-3.4411,-3.4361,-3.4362,-3.4352,-3.4348,-3.4303,-3.4293,-3.4315,-3.4261,-3.4258,-3.4279,-3.4312,-3.4235,-3.4235,-3.4333,-3.4337,-3.4341,-3.4429,0,0,0,0,0,0,-3.4438,-3.4436,-3.4456,-3.4416,-3.4411,-3.4434,-3.4364,-3.4353,-3.4349,-3.4341,-3.4306,-3.4297,-3.4259,-3.4279,-3.4279,-3.4311,-3.4236,-3.433,-3.4335,-3.4339,-3.4423,-3.4436,-3.4446,0,0,0,0,0,-3.4439,-3.4484,-3.4457,-3.4456,-3.4434,-3.4436,-3.4433,-3.4387,-3.4352,-3.4371,-3.4341,-3.4298,-3.4309,-3.4282,-3.4282,-3.4314,-3.4328,-3.4334,-3.4339,-3.4418,-3.4433,-3.4446,0,0,0,0,0,0,-3.4529,-3.4478,-3.4448,-3.4481,-3.4464,-3.4421,-3.4443,-3.4406,-3.4398,-3.439,-3.4335,-3.4328,-3.4355,-3.4337,-3.4308,-3.4361,-3.4311,-3.4317,-3.4371,-3.4386,-3.4397,-3.44,-3.4236,0,0,0,0,0,-3.4553,-3.4559,-3.4514,-3.4547,-3.454,-3.4494,-3.4493,-3.4459,-3.4439,-3.4431,-3.4403,-3.4385,-3.4383,-3.4384,-3.4381,-3.4421,-3.441,-3.4443,-3.4454,-3.4464,-3.4469,-3.4486,-3.4499,-3.4361,-3.4361,-3.4361,0,0,-3.4602,-3.4575,-3.4582,-3.4565,-3.4547,-3.4553,-3.4488,-3.4498,-3.4502,-3.4433,-3.4449,-3.4428,-3.4404,-3.4434,-3.4446,-3.442,-3.4505,-3.4472,-3.448,-3.4479,-3.4493,-3.4506,-3.4518,-3.4365,-3.4364,-3.4364,0,0,-3.4695,-3.4676,-3.47,-3.4683,-3.4657,-3.4626,-3.4632,-3.4595,-3.4578,-3.4594,-3.4541,-3.4545,-3.4545,-3.4529,-3.4521,-3.4607,-3.4566,-3.4607,-3.4667,-3.4684,-3.4695,-3.4704,-3.4732,-3.4743,-3.4613,-3.4613,-3.4613,0,-3.4759,-3.4766,-3.4718,-3.473,-3.4723,-3.4661,-3.4684,-3.4671,-3.4645,-3.4642,-3.4613,-3.461,-3.459,-3.4613,-3.4634,-3.4631,-3.4635,-3.461,-3.4697,-3.4706,-3.4714,-3.474,-3.475,-3.4618,-3.4618,-3.4617,-3.4617,0,-3.4845,-3.4851,-3.4874,-3.485,-3.4846,-3.4865,-3.4818,-3.482,-3.4787,-3.4759,-3.4775,-3.4748,-3.4737,-3.4741,-3.471,-3.476,-3.4744,-3.4708,-3.4656,-3.4733,-3.4756,-3.4765,-3.4625,-3.4624,-3.4622,-3.4621,0,0,-3.4992,-3.4939,-3.4948,-3.4935,-3.4901,-3.4905,-3.492,-3.4909,-3.491,-3.4895,-3.4905,-3.4906,-3.4871,-3.4862,-3.4829,-3.4844,-3.4909,-3.4805,-3.4803,-3.4823,-3.4959,-3.4985,-3.4997,-3.4883,-3.4885,-3.4886,-3.496,0,-3.5074,-3.5096,-3.5053,-3.5085,-3.5089,-3.5029,-3.5042,-3.5022,-3.4996,-3.4995,-3.4967,-3.4967,-3.4923,-3.4916,-3.4929,-3.4899,-3.4936,-3.4893,-3.489,-3.489,-3.4895,-3.501,-3.5037,-3.5108,-3.4969,-3.4971,-3.4972,0,-3.5174,-3.5161,-3.5194,-3.5156,-3.5156,-3.5168,-3.5153,-3.5153,-3.513,-3.5109,-3.5099,-3.5059,-3.507,-3.5023,-3.5036,-3.5008,-3.5005,-3.499,-3.4991,-3.4987,-3.4934,-3.5005,-3.513,-3.5139,-3.4986,-3.4985,-3.4984,0,-3.5273,-3.5266,-3.5283,-3.5274,-3.5232,-3.5241,-3.5224,-3.5197,-3.5193,-3.518,-3.5175,-3.5165,-3.5158,-3.515,-3.5108,-3.5078,-3.5125,-3.5075,-3.5107,-3.5108,-3.5118,-3.5117,-3.524,-3.5121,-3.5121,-3.5121,-3.5121,0,-3.5368,-3.539,-3.5327,-3.5338,-3.5359,-3.5309,-3.5332,-3.5309,-3.5286,-3.529,-3.5239,-3.5244,-3.5189,-3.5188,-3.5155,-3.517,-3.5168,-3.5151,-3.5141,-3.5154,-3.5155,-3.5148,-3.5141,-3.5123,-3.5123,-3.5122,-3.5122,0,-3.5482,-3.5442,-3.5456,-3.5414,-3.5404,-3.5422,-3.5385,-3.5393,-3.5363,-3.5369,-3.5368,-3.5322,-3.5318,-3.5275,-3.5263,-3.524,-3.5266,-3.5249,-3.5274,-3.5267,-3.53,-3.5297,-3.5421,-3.5433,-3.5309,-3.5311,-3.5312,0,-3.5544,-3.5559,-3.5518,-3.5517,-3.5502,-3.5501,-3.5495,-3.5447,-3.5443,-3.5416,-3.5426,-3.5418,-3.5408,-3.5404,-3.5369,-3.5358,-3.5338,-3.5383,-3.5336,-3.5347,-3.5335,-3.5333,-3.5333,-3.5392,-3.5393,-3.5395,-3.5396,0,-3.5657,-3.5636,-3.563,-3.5616,-3.561,-3.5597,-3.5581,-3.5583,-3.5529,-3.5527,-3.5522,-3.5515,-3.55,-3.5492,-3.5475,-3.5456,-3.5416,-3.5411,-3.5417,-3.5428,-3.5441,-3.5431,-3.5297,-3.5408,-3.5407,-3.5406,-3.5405,-3.5405,-3.5745,-3.5754,-3.5726,-3.572,-3.5703,-3.5688,-3.5692,-3.5663,-3.5658,-3.5642,-3.5614,-3.5612,-3.5586,-3.5558,-3.5543,-3.554,-3.5517,-3.5527,-3.5529,-3.5532,-3.5537,-3.5444,-3.5538,-3.5537,-3.5537,-3.5537,-3.5536,0,-3.5852,-3.5831,-3.5826,-3.5804,-3.5799,-3.5763,-3.5743,-3.5741,-3.574,-3.5719,-3.571,-3.5703,-3.5694,-3.5658,-3.5645,-3.565,-3.5631,-3.5648,-3.5645,-3.5641,-3.556,-3.5554,-3.5663,-3.5663,-3.5663,-3.5663,-3.5663,-3.5663,-3.5908,-3.592,-3.5896,-3.5899,-3.5877,-3.5875,-3.5866,-3.5852,-3.5834,-3.5828,-3.582,-3.5797,-3.577,-3.5754,-3.5744,-3.5733,-3.573,-3.5752,-3.5735,-3.566,-3.5647,-3.5636,-3.563,-3.5752,-3.5752,-3.5816,-3.5816,-3.5817]},{"header":{"parameterUnit":"m.s-1","parameterCategory":1,"la1":30.2991,"la2":30.254,"lo1":-89.0895,"lo2":-89.0444,"dy":0.0017,"dx":0.0017,"nx":28,"ny":28,"refTime":"2025-08-04T03:00:00:Z","depth":0,"parameterNumber":3,"parameterNumberName":"V-component_of_WINDS"},"data":[0,0,0,0,0,0,0,0,0,0,0,0,0,0,0,0,0,0,0,0,0,0,0,0,0,0,0,0,0,0,0,0,0,0,0,0,0,0,0,0,0,0,0,0,0,0,0,0,0,0,0,0,0,0,0,0,0,0,-0.1197,-0.1199,0,-0.134,-0.1341,-0.1343,-0.1437,-0.1438,-0.1438,-0.1439,-0.1589,-0.1592,-0.1595,0,0,0,0,0,0,0,0,0,0,0,0,0,-0.1008,-0.1011,-0.1197,-0.1199,-0.12,-0.1339,-0.1341,-0.1343,-0.1437,-0.1438,-0.1438,-0.1439,-0.1587,-0.1591,-0.1596,0,0,0,0,0,0,0,0,0,0,0,0,0,-0.1114,-0.1012,-0.1197,-0.1264,-0.1271,-0.1339,-0.1341,-0.1344,-0.1437,-0.1438,-0.1439,-0.1439,-0.1586,-0.1591,-0.1596,-0.1609,0,0,-0.1612,-0.1614,0,0,0,0,0,0,0,0,-0.1108,-0.1121,-0.1252,-0.1259,-0.1268,-0.1371,-0.133,-0.1433,-0.1437,-0.1374,-0.1439,-0.144,-0.1516,-0.1527,-0.1552,-0.1616,-0.1623,-0.1612,-0.1615,-0.1618,-0.1619,0,0,0,0,0,0,0,-0.1101,-0.1116,-0.1254,-0.1254,-0.1264,-0.1288,-0.1304,-0.135,-0.1438,-0.138,-0.1387,-0.1402,-0.152,-0.1546,-0.1556,-0.1625,-0.1612,-0.1617,-0.162,-0.1622,-0.1707,-0.1706,0,0,0,0,0,0,-0.1082,-0.1109,-0.1249,-0.1258,-0.1189,-0.129,-0.1308,-0.1337,-0.1438,-0.1454,-0.1401,-0.1406,-0.1537,-0.155,-0.1561,-0.1583,-0.1618,-0.1622,-0.1625,-0.1708,-0.1707,-0.1706,0,0,0,0,0,0,-0.1078,-0.1094,-0.1243,-0.1185,-0.1206,-0.1293,-0.1324,-0.134,-0.1366,-0.1454,-0.1471,-0.1411,-0.1538,-0.1554,-0.1596,-0.159,-0.1625,-0.1629,-0.1709,-0.1708,-0.1706,-0.1626,0,0,0,0,0,0,-0.1072,-0.1092,-0.1097,-0.1185,-0.1209,-0.1275,-0.1324,-0.1342,-0.1374,-0.1382,-0.1468,-0.1484,-0.154,-0.1588,-0.1601,-0.1597,-0.1633,-0.171,-0.1708,-0.1707,-0.163,-0.1622,-0.1616,0,0,0,0,0,-0.1065,-0.107,-0.1097,-0.1113,-0.1217,-0.1274,-0.1288,-0.1352,-0.1373,-0.138,-0.1436,-0.1481,-0.1588,-0.1592,-0.1607,-0.1605,-0.1711,-0.1709,-0.1707,-0.1633,-0.1624,-0.1616,0,0,0,0,0,0,-0.0981,-0.1083,-0.1114,-0.1147,-0.1201,-0.129,-0.13,-0.1341,-0.1391,-0.1396,-0.1475,-0.1494,-0.1528,-0.1571,-0.1573,-0.1622,-0.1655,-0.1656,-0.1593,-0.1585,-0.1578,-0.1567,-0.1638,0,0,0,0,0,-0.0966,-0.1002,-0.109,-0.1111,-0.1136,-0.1213,-0.124,-0.1285,-0.1344,-0.1368,-0.1428,-0.1485,-0.1532,-0.1561,-0.1609,-0.1636,-0.1657,-0.1642,-0.1635,-0.1629,-0.1629,-0.1646,-0.1641,-0.17,-0.17,-0.17,0,0,-0.0936,-0.0996,-0.1015,-0.1095,-0.1142,-0.1179,-0.1232,-0.1269,-0.1297,-0.1374,-0.1417,-0.1463,-0.1532,-0.1566,-0.1584,-0.1603,-0.1617,-0.1627,-0.1621,-0.1625,-0.1644,-0.1638,-0.1633,-0.1699,-0.1699,-0.1699,0,0,-0.09,-0.0949,-0.0971,-0.1017,-0.1087,-0.1138,-0.1143,-0.1225,-0.1258,-0.1302,-0.136,-0.1396,-0.1474,-0.1521,-0.1555,-0.1534,-0.1577,-0.1548,-0.1512,-0.1527,-0.1523,-0.1519,-0.1511,-0.1508,-0.1548,-0.1547,-0.1547,0,-0.0854,-0.0911,-0.0978,-0.1011,-0.1044,-0.1114,-0.1138,-0.1179,-0.1262,-0.1283,-0.1303,-0.1402,-0.1454,-0.1499,-0.1494,-0.152,-0.1528,-0.1538,-0.1518,-0.1515,-0.1512,-0.1506,-0.1503,-0.1543,-0.1544,-0.1544,-0.1545,0,-0.0851,-0.0889,-0.0899,-0.0974,-0.1009,-0.1037,-0.1109,-0.1137,-0.1178,-0.1227,-0.127,-0.1334,-0.1395,-0.141,-0.1451,-0.1461,-0.1471,-0.1503,-0.1537,-0.1501,-0.1497,-0.1495,-0.1537,-0.1539,-0.154,-0.1541,0,0,-0.0766,-0.0877,-0.088,-0.0915,-0.0997,-0.1028,-0.1059,-0.1118,-0.1139,-0.1194,-0.1222,-0.1286,-0.1316,-0.1354,-0.1401,-0.1415,-0.1394,-0.1446,-0.1449,-0.1434,-0.1409,-0.1383,-0.138,-0.1423,-0.1423,-0.1423,-0.1403,0,-0.0742,-0.08,-0.0861,-0.0898,-0.0934,-0.1,-0.1028,-0.1081,-0.1127,-0.1165,-0.1217,-0.1261,-0.1297,-0.1321,-0.1337,-0.1393,-0.139,-0.1395,-0.145,-0.1451,-0.143,-0.1377,-0.1351,-0.1329,-0.1401,-0.1401,-0.1401,0,-0.0722,-0.0771,-0.0811,-0.0888,-0.0906,-0.0929,-0.0987,-0.1022,-0.1084,-0.1117,-0.1158,-0.1208,-0.1245,-0.1274,-0.1326,-0.1328,-0.1354,-0.1384,-0.1385,-0.1393,-0.1424,-0.1383,-0.1324,-0.132,-0.1399,-0.1399,-0.1399,0,-0.0656,-0.0732,-0.0766,-0.0794,-0.0885,-0.0899,-0.0938,-0.1001,-0.1032,-0.1083,-0.1104,-0.1159,-0.1189,-0.1231,-0.1294,-0.131,-0.1338,-0.1373,-0.1367,-0.1365,-0.137,-0.1369,-0.1314,-0.1387,-0.1387,-0.1387,-0.1387,0,-0.0622,-0.0644,-0.0737,-0.0757,-0.0784,-0.0853,-0.0878,-0.0923,-0.0978,-0.1009,-0.107,-0.1098,-0.118,-0.1218,-0.1268,-0.1302,-0.1316,-0.1344,-0.1357,-0.1338,-0.1334,-0.1356,-0.1359,-0.1386,-0.1387,-0.1387,-0.1387,0,-0.0553,-0.0616,-0.0657,-0.0739,-0.076,-0.0776,-0.0847,-0.0869,-0.0918,-0.0957,-0.097,-0.1047,-0.1095,-0.1162,-0.1231,-0.1264,-0.1292,-0.1313,-0.127,-0.1278,-0.1267,-0.1267,-0.1225,-0.1222,-0.1296,-0.1295,-0.1295,0,-0.0527,-0.0545,-0.0629,-0.0653,-0.0689,-0.0728,-0.0759,-0.0828,-0.0859,-0.093,-0.0944,-0.0996,-0.1041,-0.1114,-0.1177,-0.123,-0.1252,-0.1234,-0.1261,-0.1241,-0.1251,-0.1249,-0.1251,-0.1227,-0.1226,-0.1225,-0.1224,0,-0.0475,-0.0505,-0.0547,-0.0599,-0.0635,-0.068,-0.0728,-0.0745,-0.0825,-0.0855,-0.0904,-0.0939,-0.1008,-0.1058,-0.1119,-0.1161,-0.1205,-0.1215,-0.1216,-0.1197,-0.1172,-0.1185,-0.1252,-0.1216,-0.1217,-0.1217,-0.1218,-0.1218,-0.0427,-0.0445,-0.0506,-0.0551,-0.0594,-0.0637,-0.0662,-0.0714,-0.0755,-0.0815,-0.0854,-0.09,-0.0961,-0.1047,-0.1086,-0.1124,-0.1142,-0.1144,-0.1145,-0.1144,-0.1137,-0.1165,-0.1135,-0.1136,-0.1136,-0.1136,-0.1137,0,-0.0377,-0.0419,-0.0459,-0.0524,-0.0559,-0.0597,-0.0652,-0.0679,-0.0718,-0.0771,-0.0813,-0.0868,-0.0918,-0.0984,-0.1038,-0.1055,-0.1077,-0.1067,-0.1067,-0.1075,-0.1118,-0.1111,-0.1048,-0.1048,-0.1048,-0.1048,-0.1048,-0.1048,-0.0355,-0.0388,-0.0425,-0.048,-0.0523,-0.0567,-0.0595,-0.0636,-0.0678,-0.0736,-0.0777,-0.0819,-0.0877,-0.0936,-0.0982,-0.1001,-0.1018,-0.1001,-0.1025,-0.1064,-0.1072,-0.108,-0.1074,-0.1004,-0.1004,-0.098,-0.0979,-0.0979]}]]